TimeMST,TemperatureF,Dew PointF,Humidity,Sea Level PressureIn,VisibilityMPH,Wind Direction,Wind SpeedMPH,Gust SpeedMPH,PrecipitationIn,Events,Conditions,WindDirDegrees,DateUTC
12:53 AM,21.0,19.0,92,30.10,10.0,Calm,Calm,-,N/A,,Clear,0,2012-11-19 07:53:00
1:53 AM,19.9,18.0,92,30.10,10.0,West,5.8,-,N/A,,Clear,260,2012-11-19 08:53:00
2:53 AM,21.0,19.0,92,30.12,10.0,WSW,6.9,-,N/A,,Clear,240,2012-11-19 09:53:00
3:53 AM,19.9,17.1,89,30.11,10.0,Calm,Calm,-,N/A,,Clear,0,2012-11-19 10:53:00
4:53 AM,17.1,14.0,88,30.12,10.0,ENE,3.5,-,N/A,,Clear,70,2012-11-19 11:53:00
5:53 AM,15.1,12.9,91,30.13,10.0,NE,3.5,-,N/A,,Clear,40,2012-11-19 12:53:00
6:53 AM,16.0,14.0,92,30.14,10.0,ENE,3.5,-,N/A,,Clear,60,2012-11-19 13:53:00
7:53 AM,19.0,16.0,88,30.15,10.0,NE,5.8,-,N/A,,Clear,50,2012-11-19 14:53:00
8:53 AM,23.0,19.9,88,30.14,10.0,ENE,3.5,-,N/A,,Clear,70,2012-11-19 15:53:00
9:53 AM,28.9,25.0,85,30.13,10.0,ENE,3.5,-,N/A,,Clear,70,2012-11-19 16:53:00
10:53 AM,36.0,28.9,76,30.11,10.0,Calm,Calm,-,N/A,,Clear,0,2012-11-19 17:53:00
11:53 AM,39.0,30.9,73,30.08,10.0,ENE,5.8,-,N/A,,Clear,70,2012-11-19 18:53:00
12:53 PM,41.0,32.0,70,30.04,10.0,NE,4.6,-,N/A,,Clear,50,2012-11-19 19:53:00
1:53 PM,42.1,33.1,70,30.04,10.0,NE,5.8,-,N/A,,Clear,50,2012-11-19 20:53:00
2:53 PM,42.1,33.1,70,30.01,10.0,Calm,Calm,-,N/A,,Clear,0,2012-11-19 21:53:00
3:53 PM,48.0,32.0,54,30.02,10.0,SW,4.6,-,N/A,,Clear,220,2012-11-19 22:53:00
4:53 PM,46.0,30.9,56,30.01,10.0,South,4.6,-,N/A,,Clear,190,2012-11-19 23:53:00
5:53 PM,44.1,30.0,58,30.01,10.0,SW,5.8,-,N/A,,Clear,230,2012-11-20 00:53:00
6:53 PM,43.0,30.0,60,30.00,10.0,WSW,6.9,-,N/A,,Clear,250,2012-11-20 01:53:00
7:53 PM,43.0,30.0,60,29.98,10.0,WSW,5.8,16.1,N/A,,Clear,240,2012-11-20 02:53:00
8:53 PM,41.0,28.9,62,29.96,10.0,Variable,3.5,-,N/A,,Clear,0,2012-11-20 03:53:00
9:53 PM,37.0,28.9,73,29.94,10.0,Calm,Calm,-,N/A,,Clear,0,2012-11-20 04:53:00
10:53 PM,42.1,30.0,62,29.90,10.0,SSW,4.6,-,N/A,,Clear,200,2012-11-20 05:53:00
11:53 PM,43.0,30.9,62,29.89,10.0,Calm,Calm,-,N/A,,Clear,0,2012-11-20 06:53:00